This is the latest recevied weather packets stored in our database for station/object DL4NBA-1. If no packets are shown the sender has not sent any weather packets the latest 10 day(s).
| Time | Temp. | Humidity | Pressure | Rain* | Wind** | Luminosity | Snow |
|---|---|---|---|---|---|---|---|
| 1788153516 | 62° F | - | - | 0 in | 9 mph, 222° | - | - |
| 1788153217 | 62° F | - | - | 0 in | 11 mph, 238° | - | - |
| 1788152919 | 62° F | - | - | 0 in | 5 mph, 215° | - | - |
| 1788152620 | 62° F | - | - | 0 in | 7 mph, 207° | - | - |
| 1788152322 | 61° F | - | - | 0 in | 7 mph, 215° | - | - |
| 1788151722 | 61° F | - | - | 0 in | 6 mph, 191° | - | - |
| 1788151423 | 61° F | - | - | 0 in | 5 mph, 166° | - | - |
| 1788150826 | 60° F | - | - | 0 in | 5 mph, 183° | - | - |
| 1788150525 | 60° F | - | - | 0 in | 4 mph, 200° | - | - |
| 1788149928 | 61° F | - | - | 0 in | 4 mph, 201° | - | - |
| 1788149629 | 60° F | - | - | 0 in | 5 mph, 159° | - | - |
| 1788148731 | 60° F | - | - | 0 in | 5 mph, 222° | - | - |
| 1788148133 | 60° F | - | - | 0 in | 8 mph, 210° | - | - |
| 1788147835 | 60° F | - | - | 0 in | 5 mph, 205° | - | - |
| 1788147534 | 60° F | - | - | 0 in | 3 mph, 193° | - | - |
| 1788146936 | 60° F | - | - | 0 in | 5 mph, 204° | - | - |
| 1788146339 | 60° F | - | - | 0 in | 3 mph, 187° | - | - |
| 1788145441 | 59° F | - | - | 0 in | 4 mph, 160° | - | - |
| 1788145142 | 59° F | - | - | 0 in | 2 mph, 200° | - | - |
| 1788144243 | 59° F | - | - | 0 in | 3 mph, 205° | - | - |
| 1788143645 | 59° F | - | - | 0 in | 4 mph, 231° | - | - |
| 1788142448 | 59° F | - | - | 0 in | 11 mph, 203° | - | - |
| 1788142149 | 59° F | - | - | 0 in | 4 mph, 212° | - | - |
| 1788141850 | 60° F | - | - | 0 in | 0 mph | - | - |
| 1788141549 | 59° F | - | - | 0 in | 0 mph | - | - |
* Rain latest hour (hover to see other rain measurements)
** Current wind speed in m/s (hover to see current wind gust speed)